Tracking 18987 objects as of 17-Feb-2018
HD Live streaming from Space Station
objects crossing your sky now

KANOPUS-V 4

Track KANOPUS-V 4 now!
10-day predictions


NORAD ID: 43181
Int'l Code: 2018-014B
Perigee: 507.6 km
Apogee: 517.1 km
Inclination: 97.5 °
Period: 94.7 minutes
Semi major axis: 6883 km
RCS: Unknown
Launch date: February 1, 2018
Source: Commonwealth of Independent States (former USSR) (CIS)
Launch site: VOSTOCHNY COSMODROME (VOSTO)
aabbcc
Your satellite tracking list
Your tracking list is empty




NASA's NSSDC Master Catalog

Two Line Element Set (TLE):
1 43181U 18014B   18048.55992194 -.00004185  00000-0 -19007-3 0  9996
2 43181  97.4665 318.2997 0006869  49.8771  82.2676 15.20215334  2492
Source of the keplerian elements: AFSPC